Location: Gleizolles
(44.4833°N, 6.7667°E)
Time: 22:26:55
(UTC+00:00)

Tiros 1 despin weight - All Passes

Search period start: 25 June 2024 00:00
Search period end: 05 July 2024 00:00
Orbit: 577 x 621 km, 48.2° (Epoch: 24 June)

Date Brightness Start Highest point End Pass type
(mag) Time Alt. Az. Time Alt. Az. Time Alt. Az.
25 Jun - 10:08:09 10° SSW 10:12:19 36° SE 10:16:30 10° ENE daylight
25 Jun - 11:48:42 10° WSW 11:53:17 75° NNW 11:57:52 10° ENE daylight
25 Jun - 13:30:17 10° WNW 13:34:47 53° N 13:39:16 10° E daylight
25 Jun - 15:11:37 10° WNW 15:16:13 89° NNE 15:20:46 10° ESE daylight
25 Jun - 16:53:12 10° W 16:57:00 26° SW 17:00:46 10° SSE daylight
26 Jun - 08:39:53 10° SSE 08:42:00 13° SE 08:44:07 10° ESE daylight
26 Jun - 10:17:58 10° SW 10:22:24 56° SSE 10:26:54 10° ENE daylight
26 Jun - 11:59:05 10° W 12:03:36 60° NNW 12:08:09 10° ENE daylight
26 Jun - 13:40:38 10° WNW 13:45:10 57° N 13:49:40 10° E daylight
26 Jun - 15:21:53 10° WNW 15:26:26 65° SSW 15:30:55 10° SE daylight
26 Jun - 17:04:10 10° W 17:06:56 16° SW 17:09:43 10° S daylight
27 Jun - 08:48:25 10° S 08:51:54 22° SE 08:55:25 10° E daylight
27 Jun - 10:28:02 10° WSW 10:32:35 82° SSE 10:37:11 10° ENE daylight
27 Jun - 12:09:28 10° W 12:13:58 54° N 12:18:28 10° ENE daylight
27 Jun - 13:50:56 10° WNW 13:55:30 68° NNE 14:00:04 10° E daylight
27 Jun - 15:32:14 10° WNW 15:36:34 43° SW 15:40:51 10° SE daylight
28 Jun - 08:57:47 10° SSW 09:01:54 35° SE 09:06:04 10° ENE daylight
28 Jun - 10:38:18 10° WSW 10:42:51 75° NNW 10:47:27 10° ENE daylight
28 Jun - 12:19:52 10° WNW 12:24:21 53° N 12:28:50 10° E daylight
28 Jun - 14:01:11 10° WNW 14:05:48 88° NNE 14:10:21 10° ESE daylight
28 Jun - 15:42:45 10° W 15:46:36 27° SW 15:50:24 10° SSE daylight
29 Jun - 07:29:37 10° SSE 07:31:35 13° SE 07:33:34 10° ESE daylight
29 Jun - 09:07:34 10° SW 09:11:58 55° SSE 09:16:27 10° ENE daylight
29 Jun - 10:48:39 10° W 10:53:10 61° NNW 10:57:42 10° ENE daylight
29 Jun - 12:30:12 10° WNW 12:34:44 57° N 12:39:14 10° E daylight
29 Jun - 14:11:27 10° WNW 14:16:00 66° SSW 14:20:30 10° SE daylight
29 Jun - 15:53:39 10° W 15:56:32 17° SW 15:59:23 10° S daylight
30 Jun - 07:38:03 10° S 07:41:28 21° SE 07:44:56 10° E daylight
30 Jun - 09:17:37 10° WSW 09:22:09 81° SSE 09:26:44 10° ENE daylight
30 Jun - 10:59:02 10° W 11:03:31 54° N 11:08:01 10° ENE daylight
30 Jun - 12:40:29 10° WNW 12:45:03 68° NNE 12:49:37 10° E daylight
30 Jun - 14:21:47 10° WNW 14:26:07 43° SSW 14:30:26 10° SE daylight
01 Jul - 07:47:22 10° SSW 07:51:26 34° SE 07:55:34 10° ENE daylight
01 Jul - 09:27:51 10° WSW 09:32:23 76° NNW 09:36:58 10° ENE daylight
01 Jul - 11:09:25 10° WNW 11:13:53 53° N 11:18:22 10° E daylight
01 Jul - 12:50:43 10° WNW 12:55:19 87° NNE 12:59:55 10° ESE daylight
01 Jul - 14:32:15 10° W 14:36:08 28° SW 14:40:00 10° SSE daylight
02 Jul - 06:19:20 10° SSE 06:21:08 12° SE 06:22:57 10° ESE daylight
02 Jul - 07:57:07 10° SW 08:01:30 54° SSE 08:05:57 10° ENE daylight
02 Jul - 09:38:11 10° W 09:42:41 61° NNW 09:47:13 10° ENE daylight
02 Jul - 11:19:43 10° WNW 11:24:14 57° N 11:28:45 10° E daylight
02 Jul - 13:00:58 10° WNW 13:05:31 68° SSW 13:10:03 10° SE daylight
02 Jul - 14:43:07 10° W 14:46:04 17° SW 14:49:00 10° S daylight
03 Jul - 06:27:39 10° S 06:31:00 21° SE 06:34:23 10° E daylight
03 Jul - 08:07:09 10° WSW 08:11:39 79° SSE 08:16:13 10° ENE daylight
03 Jul - 09:48:33 10° W 09:53:01 54° N 09:57:30 10° ENE daylight
03 Jul - 11:29:59 10° WNW 11:34:33 67° NNE 11:39:06 10° E daylight
03 Jul - 13:11:16 10° WNW 13:15:38 44° SSW 13:19:58 10° SE daylight
04 Jul - 06:36:56 10° SSW 06:40:57 33° SE 06:45:02 10° E daylight
04 Jul - 08:17:21 10° WSW 08:21:53 77° NNW 08:26:27 10° ENE daylight
04 Jul - 09:58:54 10° WNW 10:03:22 52° N 10:07:51 10° E daylight
04 Jul - 11:40:13 10° WNW 11:44:48 86° NNE 11:49:24 10° ESE daylight
04 Jul - 13:21:44 10° W 13:25:38 28° SW 13:29:32 10° SSE daylight
